Weather in Losino-Petrovsky

Russia / Moscow Oblast     55°52′19″N   38°12′03″E
temp.,
°C
wind,
m/s
gust,
m/s
humid.,
%
clouds,
%
prec.,
mm/h
press.,
hPa
HPBL,
m
16 may, sun
sun1600:00+13s412913 0.0 1010341
03:00+12ssw399711 0.0 1011293
06:00+12ssw39910 0.0 1012280
09:00+18sw47680 0.0 1013785
12:00+21ssw57555 0.1 10131593
15:00+20ssw58625 1.5 10131497
18:00+19sw47690 0.7 1013712
21:00+14sw22870 0.8 101421
17 may, mon
mon1700:00+13s119079 0.0 101410
03:00+12se119376 0.0 101513
06:00+14e238935 0.0 101594
09:00+20ese356480 0.0 1015521
12:00+24e46505 0.0 10141110
15:00+26ese574652 0.0 10121585
18:00+24se496316 0.1 1011626
21:00+18ese313845 0.1 1012296
18 may, tue
tue1800:00+16ese3128895 0.0 1011248
03:00+15ese414861 0.0 1011330
06:00+16se4157340 0.0 1010438
09:00+22se5135178 0.0 1010655
12:00+25sse6104199 0.0 1010925
15:00+27se6104167 0.0 10101387
18:00+24se5105485 0.0 1009830
21:00+20ese51666100 0.0 1009609
19 may, wed
wed1900:00+18ese4157780 0.0 1008483
03:00+17ese515685 0.0 1008548
06:00+17se412704 0.0 1008387
09:00+22se595617 0.0 1008558
12:00+25sse594398 0.0 10081184
15:00+25se594868 0.0 10081272
18:00+22sse496879 0.1 1008831
21:00+17ese4991100 0.7 1007205
20 may, thu
thu2000:00+14se31193100 0.9 1007616
03:00+14ese4119683 0.9 1006444
06:00+14se389695 0.0 1007436
09:00+15sse3892100 0.2 1007595
12:00+18sse697167 0.8 10071330
15:00+18s696290 1.5 10081439
18:00+17s58745 0.2 10091025
21:00+13sw410885 0.4 1010566